Terug naar catalogus

STARLINK-37266

ActiefCommunicatieSSO
NORAD 68780·PAYLOAD·🇺🇸 United States

Gelanceerd Apr 19, 2026 vanaf Vandenberg Space Force Base

Loading…

Volgende Passages (komende 24 uur)

TLE

VersSource: CelesTrak SupGP

Epoch: Sep 15, 2026, 03:56 UTC

1 68780C 26086Q   26258.16437500 -.00052505  00000+0 -16298-2 0  2584
2 68780  97.2842 293.6887 0001088  93.9085  82.8789 15.33468107    18

Volg STARLINK-37266 in realtime met AllMySat

Download on the App Store